EW9975 Weather Reports


Display with metric or nautical units.
time (UTC)temp
F
wind
direction
speed
MPH
gust
MPH
rain 1hr
in
rain 24hr
in
rain mn
in
humidity
%
barometer
mb
20260504001535 63 248 10.0 14.0 0.00 0.00 0.00 75 1014.0
20260504000030 63 260 11.0 12.0 0.00 0.00 0.00 75 1013.9
20260503234530 63 225 11.0 13.0 0.00 0.00 0.00 74 1014.0
20260503233028 63 254 8.0 11.0 0.00 0.00 0.00 76 1013.5
20260503231529 63 240 9.0 13.0 0.00 0.00 0.00 77 1013.8
20260503230027 63 272 10.0 13.0 0.00 0.00 0.00 77 1014.1
20260503224527 63 249 11.0 13.0 0.00 0.00 0.00 78 1014.1
20260503223023 63 261 9.0 12.0 0.00 0.00 0.00 78 1014.0
20260503221522 63 267 8.0 11.0 0.00 0.00 0.00 77 1014.2
20260503220021 63 250 8.0 10.0 0.00 0.00 0.00 77 1014.3
20260503214536 63 272 7.0 10.0 0.00 0.00 0.00 78 1014.6
20260503213017 63 273 7.0 10.0 0.00 0.00 0.00 78 1014.5
20260503211515 63 259 9.0 12.0 0.00 0.00 0.00 78 1014.6
20260503210013 62 253 11.0 14.0 0.00 0.00 0.00 79 1014.6
20260503204512 63 256 11.0 14.0 0.00 0.00 0.00 80 1014.7
20260503203008 62 264 11.0 15.0 0.00 0.00 0.00 80 1014.8
20260503201507 63 265 10.0 14.0 0.00 0.00 0.00 80 1014.8
20260503200004 63 255 10.0 15.0 0.00 0.00 0.00 81 1015.0
20260503194503 63 234 9.0 13.0 0.00 0.00 0.00 81 1015.0
20260503193000 62 252 11.0 14.0 0.00 0.00 0.00 81 1015.2
20260503191607 62 275 9.0 12.0 0.00 0.00 0.00 81 1015.2
20260503190059 62 246 11.0 15.0 0.00 0.00 0.00 81 1015.1
20260503184618 62 268 11.0 14.0 0.00 0.00 0.00 81 1015.1
20260503183100 62 259 10.0 12.0 0.00 0.00 0.00 82 1015.0
20260503181612 62 269 9.0 12.0 0.00 0.00 0.00 83 1015.0
20260503180112 62 263 10.0 13.0 0.00 0.00 0.00 84 1015.1
20260503174558 62 263 7.0 9.0 0.00 0.00 0.00 85 1015.1
20260503173100 62 258 6.0 9.0 0.00 0.00 0.00 85 1015.0
20260503171549 62 260 6.0 9.0 0.00 0.00 0.00 85 1014.8
20260503081555 62 227 4.0 7.0 0.00 0.00 0.00 90 1013.9
20260503080105 62 196 1.0 5.0 0.00 0.00 0.00 90 1013.7
20260503071555 61 223 4.0 8.0 0.00 0.00 0.00 91 1014.2
20260503054545 62 258 5.0 9.0 0.00 0.00 0.00 92 1014.1
20260503053042 61 223 6.0 11.0 0.00 0.00 0.00 92 1014.0
20260503051542 62 253 7.0 9.0 0.00 0.00 0.00 92 1014.0
20260503050041 61 237 5.0 10.0 0.00 0.00 0.00 92 1013.7
20260503044544 61 273 5.0 8.0 0.00 0.00 0.00 92 1013.2
20260503043040 61 226 2.0 8.0 0.00 0.00 0.00 92 1013.1
20260503041540 61 306 0.0 0.0 0.00 0.00 0.00 92 1012.8
20260503040039 61 306 4.0 9.0 0.00 0.00 0.00 92 1012.7
20260503034540 61 301 2.0 8.0 0.00 0.00 0.00 92 1012.5
20260503033040 61 298 5.0 11.0 0.00 0.00 0.00 92 1012.5
20260503031541 61 309 3.0 8.0 0.00 0.00 0.00 91 1012.2
20260503030054 61 266 3.0 7.0 0.00 0.00 0.00 92 1012.1
20260503024541 61 226 4.0 6.0 0.00 0.00 0.00 91 1012.0
20260503023037 61 260 9.0 11.0 0.00 0.00 0.00 91 1012.0
20260503021539 61 222 6.0 11.0 0.00 0.00 0.00 91 1012.0
20260503020035 61 263 7.0 12.0 0.00 0.00 0.00 91 1012.0
20260503014540 61 248 8.0 10.0 0.00 0.00 0.00 91 1012.0
20260503013033 61 238 6.0 10.0 0.00 0.00 0.00 92 1012.0
20260503011533 61 218 6.0 8.0 0.00 0.00 0.00 91 1011.9
20260503010032 62 289 6.0 10.0 0.00 0.00 0.00 91 1011.9
20260503004531 62 271 6.0 11.0 0.00 0.00 0.00 91 1011.8
20260503003030 62 258 8.0 12.0 0.00 0.00 0.00 92 1012.0